This is the latest recevied weather packets stored in our database for station/object LU8FJH-13. If no packets are shown the sender has not sent any weather packets the latest 10 day(s).
| Time | Temp. | Humidity | Pressure | Rain* | Wind** | Luminosity | Snow |
|---|---|---|---|---|---|---|---|
| 1778130783 | 20° C | 95% | 1001.6 hPa | 3.56 mm | - | - | - |
| 1778130243 | 20.56° C | 95% | 1001.6 hPa | 11.68 mm | - | - | - |
| 1778129703 | 20.56° C | 95% | 1001.4 hPa | 17.02 mm | - | - | - |
| 1778129163 | 21.11° C | 93% | 1000.8 hPa | 22.1 mm | - | - | - |
| 1778128623 | 21.11° C | 93% | 1001 hPa | 23.62 mm | - | - | - |
| 1778128083 | 20.56° C | 93% | 1000.6 hPa | 23.62 mm | - | - | - |
| 1778127543 | 20.56° C | 92% | 1000.6 hPa | 22.86 mm | - | - | - |
| 1778127003 | 21.11° C | 91% | 1001.2 hPa | 14.99 mm | - | - | - |
| 1778126463 | 21.67° C | 90% | 1000.1 hPa | 11.43 mm | - | - | - |
| 1778125923 | 22.78° C | 88% | 999.6 hPa | 4.32 mm | - | - | - |
| 1778125383 | 23.89° C | 83% | 999 hPa | 0.51 mm | - | - | - |
| 1778124843 | 24.44° C | 81% | 999.2 hPa | 0 mm | - | - | - |
| 1778124303 | 25° C | 78% | 999.1 hPa | 0 mm | - | - | - |
| 1778123763 | 25° C | 76% | 999.8 hPa | 0 mm | - | - | - |
| 1778123223 | 25° C | 75% | 999.3 hPa | 0 mm | - | - | - |
| 1778122683 | 25° C | 75% | 999.9 hPa | 0 mm | - | - | - |
| 1778122143 | 25.56° C | 75% | 1000.3 hPa | 0 mm | - | - | - |
| 1778121603 | 25.56° C | 75% | 1000.2 hPa | 0 mm | - | - | - |
| 1778121063 | 25.56° C | 75% | 1000.9 hPa | 0 mm | - | - | - |
| 1778120523 | 25.56° C | 75% | 1000.8 hPa | 0 mm | - | - | - |
| 1778119983 | 25.56° C | 75% | 1001.1 hPa | 0 mm | - | - | - |
| 1778119443 | 25.56° C | 75% | 1001.1 hPa | 0 mm | - | - | - |
| 1778118903 | 25.56° C | 75% | 1001.5 hPa | 0 mm | - | - | - |
| 1778118363 | 25.56° C | 75% | 1001.6 hPa | 0 mm | - | - | - |
| 1778117823 | 25.56° C | 75% | 1001.7 hPa | 0 mm | - | - | - |
* Rain latest hour (hover to see other rain measurements)
** Current wind speed in m/s (hover to see current wind gust speed)